Regional Weather Roundup
Issued by NWS

Home | Current Version | Previous Version | Text Only | Print | Product List | Glossary Off
Versions: 1 2 3 4 5 6 7 8 9 10 11 12 13 14 15 16 17 18 19 20 21 22 23 24 25 26 27 28 29 30 31 32 33 34 35 36 37 38 39 40 41 42 43 44 45 46 47 48 49 50

000
ASUS45 KCYS 241010
RWRWY

WYOMING REGIONAL WEATHER ROUNDUP
NATIONAL WEATHER SERVICE CHEYENNE WY
300 AM MST FRI FEB 24 2017

NOTE:  "FAIR" INDICATES FEW OR NO CLOUDS BELOW 12,000 FEET
WITH NO SIGNIFICANT WEATHER AND/OR OBSTRUCTIONS TO VISIBILITY.

WYZ001-241100-
YELLOWSTONE NATIONAL PARK

CITY           SKY/WX    TMP DP  RH WIND       PRES   REMARKS
LK YELLOWSTONE   N/A      1  -2  87 CALM      29.76S
W YELLOWSTONE  NOT AVBL

$$
WYZ002>013-054>058-071-098>099-241100-
NORTHERN WYOMING

CITY           SKY/WX    TMP DP  RH WIND       PRES   REMARKS
JACKSON        CLOUDY    18  18 100 S7        29.79S WCI   8
CODY           CLOUDY    14  12  92 SW3       29.88S
GREYBULL       CLOUDY    22  19  89 W6        29.91S FOG     WCI  14
WORLAND        MOCLDY    19  18  95 SW5       29.90F WCI  12
SHERIDAN       CLOUDY    23  17  78 SE17      29.93F WCI   9
BUFFALO        CLOUDY    20  14  77 S3        29.90F
GILLETTE       LGT SNOW  23  21  92 E7        29.92F FOG     WCI  15
HULETT         CLOUDY    23  19  86 MISG      29.95F
NEWCASTLE      LGT SNOW  23  21  93 CALM      29.93F

$$
WYZ014>020-022>026-101>103-241100-
CENTRAL WYOMING

CITY           SKY/WX    TMP DP  RH WIND       PRES   REMARKS
BIG PINEY      CLOUDY    13   9  84 NW6       29.77S WCI   4
PINEDALE       LGT SNOW  18  12  79 E6        29.77S WCI   9
DUBOIS         FLURRIES  12  10  92 SE3       29.76F
LANDER         LGT SNOW  18  16  92 NW3       29.84F FOG
RIVERTON       LGT SNOW  17  15  92 CALM      29.86S FOG
CASPER         CLOUDY    14  11  87 NE9       29.85F WCI   2
DOUGLAS        CLOUDY     9   6  88 CALM      29.89F

$$
WYZ021-027>030-104>119-241100-
SOUTHERN WYOMING

CITY           SKY/WX    TMP DP  RH WIND       PRES   REMARKS
EVANSTON       LGT SNOW  14   9  80 W9        29.79S WCI   2
FORT BRIDGER   LGT SNOW  16  16 100 W8        29.81S WCI   5
ROCK SPRINGS   FAIR      14   8  77 NE3       29.78S
DIXON          FLURRIES  17  11  77 SW10      29.78R WCI   5
RAWLINS        LGT SNOW  12   7  80 NE18      29.72S WCI  -6
SARATOGA       CLOUDY    16   9  73 SE8       29.69S WCI   5
LARAMIE        CLOUDY     9   4  80 SE3       29.73F
CHEYENNE       LGT SNOW  12   8  84 NW7       29.80S FOG     WCI   1
TORRINGTON     LGT SNOW  20  16  84 N7        29.90S FOG     WCI  11
PINE BLUFFS    CLOUDY    18  16  93 N9        29.85S WCI   6

$$



USA.gov is the U.S. government's official web portal to all federal, state and local government web resources and services.